Time,TemperatureF,DewpointF,PressureIn,WindDirection,WindDirectionDegrees,WindSpeedMPH,WindSpeedGustMPH,Humidity,HourlyPrecipIn,Conditions,Clouds,dailyrainin,SoftwareType,DateUTC
2013-01-27 00:00:00,25.7,19.5,30.49,NW,313,2.0,3.0,77,0.00,,,0.13,HR-IXPWINDi_r2_v1.2.,2013-01-27 05:00:00,
2013-01-27 00:05:00,25.9,19.7,30.49,NW,313,0.0,3.0,77,0.00,,,0.00,HR-IXPWINDi_r2_v1.2.,2013-01-27 05:05:00,
2013-01-27 00:11:00,25.9,20.0,30.49,WSW,247,2.0,3.0,78,0.00,,,0.00,HR-IXPWINDi_r2_v1.2.,2013-01-27 05:11:00,
2013-01-27 00:16:00,25.8,19.9,30.49,WSW,247,0.0,3.0,78,0.00,,,0.00,HR-IXPWINDi_r2_v1.2.,2013-01-27 05:16:00,
2013-01-27 00:22:00,25.8,19.6,30.49,WSW,247,0.0,3.0,77,0.00,,,0.00,HR-IXPWINDi_r2_v1.2.,2013-01-27 05:22:00,
2013-01-27 00:27:00,25.8,19.6,30.49,WSW,247,0.0,2.0,77,0.00,,,0.00,HR-IXPWINDi_r2_v1.2.,2013-01-27 05:27:00,
2013-01-27 00:32:00,25.9,19.7,30.49,WSW,247,0.0,2.0,77,0.00,,,0.00,HR-IXPWINDi_r2_v1.2.,2013-01-27 05:32:00,
2013-01-27 00:38:00,25.7,19.5,30.49,WSW,247,0.0,1.0,77,0.00,,,0.00,HR-IXPWINDi_r2_v1.2.,2013-01-27 05:38:00,
2013-01-27 00:43:00,25.6,19.4,30.49,WSW,247,0.0,0.0,77,0.00,,,0.00,HR-IXPWINDi_r2_v1.2.,2013-01-27 05:43:00,
2013-01-27 00:48:00,25.4,19.5,30.50,WSW,247,0.0,0.0,78,0.00,,,0.00,HR-IXPWINDi_r2_v1.2.,2013-01-27 05:48:00,
2013-01-27 00:53:00,25.2,19.3,30.50,WSW,247,0.0,1.0,78,0.00,,,0.00,HR-IXPWINDi_r2_v1.2.,2013-01-27 05:53:00,
2013-01-27 00:58:00,25.0,19.4,30.50,WSW,247,0.0,1.0,79,0.00,,,0.00,HR-IXPWINDi_r2_v1.2.,2013-01-27 05:58:00,
2013-01-27 01:03:00,24.8,19.2,30.50,WSW,247,0.0,0.0,79,0.00,,,0.00,HR-IXPWINDi_r2_v1.2.,2013-01-27 06:03:00,
2013-01-27 01:08:00,24.6,19.0,30.50,WSW,247,0.0,0.0,79,0.00,,,0.00,HR-IXPWINDi_r2_v1.2.,2013-01-27 06:08:00,
2013-01-27 01:14:00,24.5,19.2,30.50,WSW,247,0.0,1.0,80,0.00,,,0.00,HR-IXPWINDi_r2_v1.2.,2013-01-27 06:14:00,
2013-01-27 01:19:00,24.3,19.0,30.50,WSW,247,0.0,1.0,80,0.00,,,0.00,HR-IXPWINDi_r2_v1.2.,2013-01-27 06:19:00,
2013-01-27 01:24:00,24.0,19.0,30.50,WSW,247,0.0,1.0,81,0.00,,,0.00,HR-IXPWINDi_r2_v1.2.,2013-01-27 06:24:00,
2013-01-27 01:29:00,23.9,18.9,30.50,WSW,247,0.0,0.0,81,0.00,,,0.00,HR-IXPWINDi_r2_v1.2.,2013-01-27 06:29:00,
2013-01-27 01:34:00,23.7,18.7,30.51,WSW,247,0.0,0.0,81,0.00,,,0.00,HR-IXPWINDi_r2_v1.2.,2013-01-27 06:34:00,
2013-01-27 01:39:00,23.5,18.5,30.51,WSW,247,0.0,0.0,81,0.00,,,0.00,HR-IXPWINDi_r2_v1.2.,2013-01-27 06:39:00,
2013-01-27 01:44:00,23.4,18.7,30.51,WSW,247,0.0,1.0,82,0.00,,,0.00,HR-IXPWINDi_r2_v1.2.,2013-01-27 06:44:00,
2013-01-27 01:49:00,23.4,18.7,30.51,WSW,247,0.0,1.0,82,0.00,,,0.00,HR-IXPWINDi_r2_v1.2.,2013-01-27 06:49:00,
2013-01-27 01:55:00,23.3,18.6,30.51,WSW,247,0.0,2.0,82,0.00,,,0.00,HR-IXPWINDi_r2_v1.2.,2013-01-27 06:55:00,
2013-01-27 02:00:00,23.2,18.8,30.51,WSW,247,0.0,2.0,83,0.00,,,0.00,HR-IXPWINDi_r2_v1.2.,2013-01-27 07:00:00,
2013-01-27 02:05:00,23.1,18.7,30.51,WSW,247,0.0,2.0,83,0.00,,,0.00,HR-IXPWINDi_r2_v1.2.,2013-01-27 07:05:00,
2013-01-27 02:13:00,23.1,18.7,30.50,WSW,247,0.0,2.0,83,0.00,,,0.00,HR-IXPWINDi_r2_v1.2.,2013-01-27 07:13:00,
2013-01-27 02:18:00,23.1,19.0,30.50,WSW,245,1.0,2.0,84,0.00,,,0.00,HR-IXPWINDi_r2_v1.2.,2013-01-27 07:18:00,
2013-01-27 02:23:00,23.0,18.9,30.50,WSW,244,0.0,2.0,84,0.00,,,0.00,HR-IXPWINDi_r2_v1.2.,2013-01-27 07:23:00,
2013-01-27 02:28:00,22.9,18.5,30.51,WSW,244,0.0,1.0,83,0.00,,,0.00,HR-IXPWINDi_r2_v1.2.,2013-01-27 07:28:00,
2013-01-27 02:33:00,22.9,18.5,30.50,WSW,244,0.0,0.0,83,0.00,,,0.00,HR-IXPWINDi_r2_v1.2.,2013-01-27 07:33:00,
2013-01-27 02:38:00,22.8,18.4,30.51,WSW,244,0.0,0.0,83,0.00,,,0.00,HR-IXPWINDi_r2_v1.2.,2013-01-27 07:38:00,
2013-01-27 02:43:00,22.7,18.6,30.51,WSW,244,0.0,0.0,84,0.00,,,0.00,HR-IXPWINDi_r2_v1.2.,2013-01-27 07:43:00,
2013-01-27 02:49:00,22.6,18.5,30.51,WSW,244,0.0,1.0,84,0.00,,,0.00,HR-IXPWINDi_r2_v1.2.,2013-01-27 07:49:00,
2013-01-27 02:54:00,22.4,18.3,30.51,WSW,244,0.0,1.0,84,0.00,,,0.00,HR-IXPWINDi_r2_v1.2.,2013-01-27 07:54:00,
2013-01-27 02:59:00,22.2,18.1,30.52,WSW,244,0.0,0.0,84,0.00,,,0.00,HR-IXPWINDi_r2_v1.2.,2013-01-27 07:59:00,
2013-01-27 03:04:00,22.0,18.2,30.52,WSW,244,0.0,1.0,85,0.00,,,0.00,HR-IXPWINDi_r2_v1.2.,2013-01-27 08:04:00,
2013-01-27 03:09:00,21.9,18.1,30.52,WSW,244,0.0,1.0,85,0.00,,,0.00,HR-IXPWINDi_r2_v1.2.,2013-01-27 08:09:00,
2013-01-27 03:14:00,21.9,18.1,30.52,WSW,244,0.0,1.0,85,0.00,,,0.00,HR-IXPWINDi_r2_v1.2.,2013-01-27 08:14:00,
2013-01-27 03:20:00,21.8,18.0,30.52,WSW,244,0.0,1.0,85,0.00,,,0.00,HR-IXPWINDi_r2_v1.2.,2013-01-27 08:20:00,
2013-01-27 03:25:00,21.7,17.9,30.52,WSW,244,0.0,0.0,85,0.00,,,0.00,HR-IXPWINDi_r2_v1.2.,2013-01-27 08:25:00,
2013-01-27 03:30:00,21.5,17.7,30.52,WSW,244,0.0,0.0,85,0.00,,,0.00,HR-IXPWINDi_r2_v1.2.,2013-01-27 08:30:00,
2013-01-27 03:35:00,21.3,17.8,30.52,WSW,244,0.0,0.0,86,0.00,,,0.00,HR-IXPWINDi_r2_v1.2.,2013-01-27 08:35:00,
2013-01-27 03:40:00,21.2,17.7,30.52,WSW,244,0.0,0.0,86,0.00,,,0.00,HR-IXPWINDi_r2_v1.2.,2013-01-27 08:40:00,
2013-01-27 03:45:00,21.2,18.0,30.52,WSW,244,0.0,0.0,87,0.00,,,0.00,HR-IXPWINDi_r2_v1.2.,2013-01-27 08:45:00,
2013-01-27 03:50:00,21.2,18.0,30.51,WSW,244,0.0,1.0,87,0.00,,,0.00,HR-IXPWINDi_r2_v1.2.,2013-01-27 08:50:00,
2013-01-27 03:55:00,21.1,17.6,30.51,WSW,244,0.0,1.0,86,0.00,,,0.00,HR-IXPWINDi_r2_v1.2.,2013-01-27 08:55:00,
2013-01-27 04:01:00,20.9,17.7,30.51,WSW,244,0.0,0.0,87,0.00,,,0.00,HR-IXPWINDi_r2_v1.2.,2013-01-27 09:01:00,
2013-01-27 04:06:00,20.8,17.6,30.51,WSW,244,0.0,0.0,87,0.00,,,0.00,HR-IXPWINDi_r2_v1.2.,2013-01-27 09:06:00,
2013-01-27 04:12:00,20.6,17.4,30.51,WSW,244,0.0,0.0,87,0.00,,,0.00,HR-IXPWINDi_r2_v1.2.,2013-01-27 09:12:00,
2013-01-27 04:17:00,20.5,17.3,30.52,WSW,244,0.0,0.0,87,0.00,,,0.00,HR-IXPWINDi_r2_v1.2.,2013-01-27 09:17:00,
2013-01-27 04:22:00,20.5,17.3,30.52,WSW,244,0.0,0.0,87,0.00,,,0.00,HR-IXPWINDi_r2_v1.2.,2013-01-27 09:22:00,
2013-01-27 04:27:00,20.4,17.4,30.52,WSW,244,0.0,0.0,88,0.00,,,0.00,HR-IXPWINDi_r2_v1.2.,2013-01-27 09:27:00,
2013-01-27 04:32:00,20.3,17.3,30.52,WSW,244,0.0,0.0,88,0.00,,,0.00,HR-IXPWINDi_r2_v1.2.,2013-01-27 09:32:00,
2013-01-27 04:37:00,20.4,17.4,30.52,WSW,244,0.0,0.0,88,0.00,,,0.00,HR-IXPWINDi_r2_v1.2.,2013-01-27 09:37:00,
2013-01-27 04:42:00,20.3,17.3,30.52,WSW,244,0.0,0.0,88,0.00,,,0.00,HR-IXPWINDi_r2_v1.2.,2013-01-27 09:42:00,
2013-01-27 04:48:00,20.2,17.2,30.53,WSW,244,0.0,0.0,88,0.00,,,0.00,HR-IXPWINDi_r2_v1.2.,2013-01-27 09:48:00,
2013-01-27 04:52:00,20.1,17.1,30.52,WSW,244,0.0,0.0,88,0.00,,,0.00,HR-IXPWINDi_r2_v1.2.,2013-01-27 09:52:00,
2013-01-27 04:58:00,20.0,17.0,30.52,WSW,244,0.0,0.0,88,0.00,,,0.00,HR-IXPWINDi_r2_v1.2.,2013-01-27 09:58:00,
2013-01-27 05:03:00,20.0,17.0,30.52,WSW,244,0.0,0.0,88,0.00,,,0.00,HR-IXPWINDi_r2_v1.2.,2013-01-27 10:03:00,
2013-01-27 05:08:00,19.9,16.9,30.52,WSW,244,0.0,0.0,88,0.00,,,0.00,HR-IXPWINDi_r2_v1.2.,2013-01-27 10:08:00,
2013-01-27 05:13:00,19.8,17.1,30.53,WSW,244,0.0,0.0,89,0.00,,,0.00,HR-IXPWINDi_r2_v1.2.,2013-01-27 10:13:00,
2013-01-27 05:18:00,19.7,17.0,30.52,WSW,244,0.0,0.0,89,0.00,,,0.00,HR-IXPWINDi_r2_v1.2.,2013-01-27 10:18:00,
2013-01-27 05:24:00,19.8,17.1,30.52,WSW,244,0.0,0.0,89,0.00,,,0.00,HR-IXPWINDi_r2_v1.2.,2013-01-27 10:24:00,
2013-01-27 05:29:00,19.9,17.2,30.53,WSW,244,0.0,0.0,89,0.00,,,0.00,HR-IXPWINDi_r2_v1.2.,2013-01-27 10:29:00,
2013-01-27 05:34:00,19.9,17.2,30.53,WSW,244,0.0,0.0,89,0.00,,,0.00,HR-IXPWINDi_r2_v1.2.,2013-01-27 10:34:00,
2013-01-27 05:39:00,19.9,17.2,30.53,WSW,244,0.0,0.0,89,0.00,,,0.00,HR-IXPWINDi_r2_v1.2.,2013-01-27 10:39:00,
2013-01-27 05:44:00,19.8,17.1,30.53,WSW,244,0.0,1.0,89,0.00,,,0.00,HR-IXPWINDi_r2_v1.2.,2013-01-27 10:44:00,
2013-01-27 05:49:00,19.8,17.1,30.54,WSW,244,0.0,1.0,89,0.00,,,0.00,HR-IXPWINDi_r2_v1.2.,2013-01-27 10:49:00,
2013-01-27 05:55:00,19.7,17.0,30.54,WSW,244,0.0,0.0,89,0.00,,,0.00,HR-IXPWINDi_r2_v1.2.,2013-01-27 10:55:00,
2013-01-27 06:00:00,19.7,17.0,30.54,WSW,244,0.0,0.0,89,0.00,,,0.00,HR-IXPWINDi_r2_v1.2.,2013-01-27 11:00:00,
2013-01-27 06:05:00,19.7,17.0,30.54,WSW,244,0.0,0.0,89,0.00,,,0.00,HR-IXPWINDi_r2_v1.2.,2013-01-27 11:05:00,
2013-01-27 06:10:00,19.7,17.0,30.55,WSW,244,0.0,0.0,89,0.00,,,0.00,HR-IXPWINDi_r2_v1.2.,2013-01-27 11:10:00,
2013-01-27 06:15:00,19.6,16.9,30.55,WSW,244,0.0,0.0,89,0.00,,,0.00,HR-IXPWINDi_r2_v1.2.,2013-01-27 11:15:00,
2013-01-27 06:20:00,19.5,16.8,30.54,WSW,244,0.0,0.0,89,0.00,,,0.00,HR-IXPWINDi_r2_v1.2.,2013-01-27 11:20:00,
2013-01-27 06:26:00,19.5,16.8,30.55,WSW,244,0.0,0.0,89,0.00,,,0.00,HR-IXPWINDi_r2_v1.2.,2013-01-27 11:26:00,
2013-01-27 06:31:00,19.3,16.6,30.55,WSW,244,0.0,0.0,89,0.00,,,0.00,HR-IXPWINDi_r2_v1.2.,2013-01-27 11:31:00,
2013-01-27 06:36:00,19.1,16.4,30.55,WSW,244,0.0,0.0,89,0.00,,,0.00,HR-IXPWINDi_r2_v1.2.,2013-01-27 11:36:00,
2013-01-27 06:41:00,18.9,16.2,30.55,WSW,244,0.0,0.0,89,0.00,,,0.00,HR-IXPWINDi_r2_v1.2.,2013-01-27 11:41:00,
2013-01-27 06:46:00,18.8,16.1,30.55,WSW,244,0.0,0.0,89,0.00,,,0.00,HR-IXPWINDi_r2_v1.2.,2013-01-27 11:46:00,
2013-01-27 06:51:00,18.7,16.3,30.56,WSW,244,0.0,0.0,90,0.00,,,0.00,HR-IXPWINDi_r2_v1.2.,2013-01-27 11:51:00,
2013-01-27 06:56:00,18.7,16.3,30.56,WSW,244,0.0,0.0,90,0.00,,,0.00,HR-IXPWINDi_r2_v1.2.,2013-01-27 11:56:00,
2013-01-27 07:02:00,18.6,16.2,30.56,WSW,244,0.0,0.0,90,0.00,,,0.00,HR-IXPWINDi_r2_v1.2.,2013-01-27 12:02:00,
2013-01-27 07:07:00,18.5,16.1,30.57,WSW,244,0.0,0.0,90,0.00,,,0.00,HR-IXPWINDi_r2_v1.2.,2013-01-27 12:07:00,
2013-01-27 07:12:00,18.3,15.9,30.58,WSW,244,0.0,0.0,90,0.00,,,0.00,HR-IXPWINDi_r2_v1.2.,2013-01-27 12:12:00,
2013-01-27 07:17:00,18.3,16.1,30.58,WSW,244,2.0,2.0,91,0.00,,,0.00,HR-IXPWINDi_r2_v1.2.,2013-01-27 12:17:00,
2013-01-27 07:22:00,18.3,16.1,30.58,SSE,160,0.0,2.0,91,0.00,,,0.00,HR-IXPWINDi_r2_v1.2.,2013-01-27 12:22:00,
2013-01-27 07:27:00,18.4,16.2,30.58,SSE,160,0.0,2.0,91,0.00,,,0.00,HR-IXPWINDi_r2_v1.2.,2013-01-27 12:27:00,
2013-01-27 07:33:00,18.4,16.2,30.58,SSE,160,0.0,1.0,91,0.00,,,0.00,HR-IXPWINDi_r2_v1.2.,2013-01-27 12:33:00,
2013-01-27 07:38:00,18.4,16.2,30.58,SSE,160,0.0,0.0,91,0.00,,,0.00,HR-IXPWINDi_r2_v1.2.,2013-01-27 12:38:00,
2013-01-27 07:43:00,18.4,16.2,30.59,SSE,160,0.0,0.0,91,0.00,,,0.00,HR-IXPWINDi_r2_v1.2.,2013-01-27 12:43:00,
2013-01-27 07:48:00,18.4,16.2,30.59,SSE,160,0.0,0.0,91,0.00,,,0.00,HR-IXPWINDi_r2_v1.2.,2013-01-27 12:48:00,
2013-01-27 07:54:00,18.4,16.2,30.60,SSE,160,0.0,0.0,91,0.00,,,0.00,HR-IXPWINDi_r2_v1.2.,2013-01-27 12:54:00,
2013-01-27 07:59:00,18.4,16.2,30.60,SSE,160,0.0,0.0,91,0.00,,,0.00,HR-IXPWINDi_r2_v1.2.,2013-01-27 12:59:00,
2013-01-27 08:04:00,18.3,16.1,30.61,SSE,160,0.0,0.0,91,0.00,,,0.00,HR-IXPWINDi_r2_v1.2.,2013-01-27 13:04:00,
2013-01-27 08:09:00,18.5,16.6,30.61,SSE,160,0.0,0.0,92,0.00,,,0.00,HR-IXPWINDi_r2_v1.2.,2013-01-27 13:09:00,
2013-01-27 08:14:00,18.6,16.7,30.61,SSE,160,0.0,0.0,92,0.00,,,0.00,HR-IXPWINDi_r2_v1.2.,2013-01-27 13:14:00,
2013-01-27 08:19:00,18.8,16.9,30.61,SSE,160,0.0,0.0,92,0.00,,,0.00,HR-IXPWINDi_r2_v1.2.,2013-01-27 13:19:00,
2013-01-27 08:24:00,19.1,17.2,30.61,SSE,160,0.0,0.0,92,0.00,,,0.00,HR-IXPWINDi_r2_v1.2.,2013-01-27 13:24:00,
2013-01-27 08:30:00,19.3,17.4,30.62,SSE,160,0.0,0.0,92,0.00,,,0.00,HR-IXPWINDi_r2_v1.2.,2013-01-27 13:30:00,
2013-01-27 08:35:00,19.5,17.6,30.62,SSE,160,0.0,0.0,92,0.00,,,0.00,HR-IXPWINDi_r2_v1.2.,2013-01-27 13:35:00,
2013-01-27 08:40:00,19.7,17.8,30.62,SSE,160,0.0,0.0,92,0.00,,,0.00,HR-IXPWINDi_r2_v1.2.,2013-01-27 13:40:00,
2013-01-27 08:45:00,20.0,18.1,30.62,SSE,160,0.0,0.0,92,0.00,,,0.00,HR-IXPWINDi_r2_v1.2.,2013-01-27 13:45:00,
2013-01-27 08:50:00,20.3,18.4,30.62,SSE,160,0.0,0.0,92,0.00,,,0.00,HR-IXPWINDi_r2_v1.2.,2013-01-27 13:50:00,
2013-01-27 08:55:00,20.7,18.8,30.62,SSE,160,0.0,0.0,92,0.00,,,0.00,HR-IXPWINDi_r2_v1.2.,2013-01-27 13:55:00,
2013-01-27 09:01:00,21.3,19.4,30.62,SSE,160,0.0,0.0,92,0.00,,,0.00,HR-IXPWINDi_r2_v1.2.,2013-01-27 14:01:00,
2013-01-27 09:06:00,21.7,19.5,30.63,SSE,160,0.0,0.0,91,0.00,,,0.00,HR-IXPWINDi_r2_v1.2.,2013-01-27 14:06:00,
2013-01-27 09:11:00,22.4,20.2,30.63,SSE,160,0.0,0.0,91,0.00,,,0.00,HR-IXPWINDi_r2_v1.2.,2013-01-27 14:11:00,
2013-01-27 09:16:00,23.0,20.3,30.63,SSE,160,0.0,0.0,89,0.00,,,0.00,HR-IXPWINDi_r2_v1.2.,2013-01-27 14:16:00,
2013-01-27 09:21:00,23.6,20.6,30.63,SSE,160,0.0,1.0,88,0.00,,,0.00,HR-IXPWINDi_r2_v1.2.,2013-01-27 14:21:00,
2013-01-27 09:27:00,24.1,20.8,30.63,SSE,160,0.0,1.0,87,0.00,,,0.00,HR-IXPWINDi_r2_v1.2.,2013-01-27 14:27:00,
2013-01-27 09:32:00,24.7,21.1,30.63,SSE,160,0.0,0.0,86,0.00,,,0.00,HR-IXPWINDi_r2_v1.2.,2013-01-27 14:32:00,
2013-01-27 09:37:00,25.2,21.3,30.63,SSE,160,0.0,0.0,85,0.00,,,0.00,HR-IXPWINDi_r2_v1.2.,2013-01-27 14:37:00,
2013-01-27 09:43:00,25.5,21.6,30.63,SSE,160,0.0,0.0,85,0.00,,,0.00,HR-IXPWINDi_r2_v1.2.,2013-01-27 14:43:00,
2013-01-27 09:48:00,26.0,21.8,30.63,SSE,160,0.0,0.0,84,0.00,,,0.00,HR-IXPWINDi_r2_v1.2.,2013-01-27 14:48:00,
2013-01-27 09:53:00,26.3,21.8,30.63,SSE,160,0.0,0.0,83,0.00,,,0.00,HR-IXPWINDi_r2_v1.2.,2013-01-27 14:53:00,
2013-01-27 09:58:00,26.6,21.9,30.63,SSE,160,0.0,0.0,82,0.00,,,0.00,HR-IXPWINDi_r2_v1.2.,2013-01-27 14:58:00,
2013-01-27 10:03:00,26.9,21.6,30.63,SSE,160,0.0,1.0,80,0.00,,,0.00,HR-IXPWINDi_r2_v1.2.,2013-01-27 15:03:00,
2013-01-27 10:08:00,27.3,21.4,30.63,SSE,153,0.0,2.0,78,0.00,,,0.00,HR-IXPWINDi_r2_v1.2.,2013-01-27 15:08:00,
2013-01-27 10:13:00,27.6,21.6,30.63,SSE,152,0.0,2.0,78,0.00,,,0.00,HR-IXPWINDi_r2_v1.2.,2013-01-27 15:13:00,
2013-01-27 10:19:00,28.0,21.7,30.63,SSE,152,0.0,2.0,77,0.00,,,0.00,HR-IXPWINDi_r2_v1.2.,2013-01-27 15:19:00,
2013-01-27 10:24:00,28.3,21.7,30.63,SSE,152,0.0,2.0,76,0.00,,,0.00,HR-IXPWINDi_r2_v1.2.,2013-01-27 15:24:00,
2013-01-27 10:29:00,28.7,22.1,30.63,SSE,152,0.0,1.0,76,0.00,,,0.00,HR-IXPWINDi_r2_v1.2.,2013-01-27 15:29:00,
2013-01-27 10:35:00,29.0,22.4,30.64,West,270,2.0,3.0,76,0.00,,,0.00,HR-IXPWINDi_r2_v1.2.,2013-01-27 15:35:00,
2013-01-27 10:40:00,29.2,22.3,30.64,West,273,1.0,3.0,75,0.00,,,0.00,HR-IXPWINDi_r2_v1.2.,2013-01-27 15:40:00,
2013-01-27 10:45:00,29.3,22.0,30.64,ENE,76,1.0,3.0,74,0.00,,,0.00,HR-IXPWINDi_r2_v1.2.,2013-01-27 15:45:00,
2013-01-27 10:50:00,29.8,22.5,30.64,ENE,76,0.0,3.0,74,0.00,,,0.00,HR-IXPWINDi_r2_v1.2.,2013-01-27 15:50:00,
2013-01-27 10:55:00,30.1,22.5,30.64,ENE,76,1.0,3.0,73,0.00,,,0.00,HR-IXPWINDi_r2_v1.2.,2013-01-27 15:55:00,
2013-01-27 11:00:00,30.3,22.4,30.64,NE,46,1.0,3.0,72,0.00,,,0.00,HR-IXPWINDi_r2_v1.2.,2013-01-27 16:00:00,
2013-01-27 11:05:00,30.6,22.6,30.64,SSE,161,2.0,3.0,72,0.00,,,0.00,HR-IXPWINDi_r2_v1.2.,2013-01-27 16:05:00,
2013-01-27 11:10:00,31.0,23.0,30.64,SSE,152,0.0,3.0,72,0.00,,,0.00,HR-IXPWINDi_r2_v1.2.,2013-01-27 16:10:00,
2013-01-27 11:15:00,31.2,23.2,30.64,SE,128,2.0,3.0,72,0.00,,,0.00,HR-IXPWINDi_r2_v1.2.,2013-01-27 16:15:00,
2013-01-27 11:20:00,31.5,23.2,30.64,SE,126,0.0,2.0,71,0.00,,,0.00,HR-IXPWINDi_r2_v1.2.,2013-01-27 16:20:00,
2013-01-27 11:26:00,32.0,24.0,30.64,ESE,119,0.0,3.0,72,0.00,,,0.00,HR-IXPWINDi_r2_v1.2.,2013-01-27 16:26:00,
2013-01-27 11:31:00,32.3,24.3,30.64,East,90,0.0,3.0,72,0.00,,,0.00,HR-IXPWINDi_r2_v1.2.,2013-01-27 16:31:00,
2013-01-27 11:36:00,32.4,24.0,30.63,East,87,2.0,3.0,71,0.00,,,0.00,HR-IXPWINDi_r2_v1.2.,2013-01-27 16:36:00,
2013-01-27 11:41:00,32.4,24.0,30.63,East,88,2.0,2.0,71,0.00,,,0.00,HR-IXPWINDi_r2_v1.2.,2013-01-27 16:41:00,
2013-01-27 11:46:00,32.2,23.5,30.63,East,88,0.0,2.0,70,0.00,,,0.00,HR-IXPWINDi_r2_v1.2.,2013-01-27 16:46:00,
2013-01-27 11:51:00,31.9,23.6,30.63,ESE,103,2.0,2.0,71,0.00,,,0.00,HR-IXPWINDi_r2_v1.2.,2013-01-27 16:51:00,
2013-01-27 11:56:00,32.0,24.3,30.62,ESE,105,0.0,2.0,73,0.00,,,0.00,HR-IXPWINDi_r2_v1.2.,2013-01-27 16:56:00,
2013-01-27 12:02:00,32.1,23.8,30.61,ESE,114,0.0,3.0,71,0.00,,,0.00,HR-IXPWINDi_r2_v1.2.,2013-01-27 17:02:00,
2013-01-27 12:07:00,32.4,24.7,30.61,East,87,0.0,3.0,73,0.00,,,0.00,HR-IXPWINDi_r2_v1.2.,2013-01-27 17:07:00,
2013-01-27 12:12:00,32.8,24.8,30.60,East,87,1.0,2.0,72,0.00,,,0.00,HR-IXPWINDi_r2_v1.2.,2013-01-27 17:12:00,
2013-01-27 12:17:00,33.2,24.5,30.60,East,95,0.0,2.0,70,0.00,,,0.00,HR-IXPWINDi_r2_v1.2.,2013-01-27 17:17:00,
2013-01-27 12:22:00,33.3,24.9,30.59,East,101,1.0,3.0,71,0.00,,,0.00,HR-IXPWINDi_r2_v1.2.,2013-01-27 17:22:00,
2013-01-27 12:27:00,33.4,24.7,30.59,SE,134,0.0,4.0,70,0.00,,,0.00,HR-IXPWINDi_r2_v1.2.,2013-01-27 17:27:00,
2013-01-27 12:33:00,33.7,25.0,30.58,NE,36,1.0,4.0,70,0.00,,,0.00,HR-IXPWINDi_r2_v1.2.,2013-01-27 17:33:00,
2013-01-27 12:38:00,33.8,24.7,30.58,ENE,61,1.0,3.0,69,0.00,,,0.00,HR-IXPWINDi_r2_v1.2.,2013-01-27 17:38:00,
2013-01-27 12:43:00,33.9,24.8,30.58,ENE,71,2.0,5.0,69,0.00,,,0.00,HR-IXPWINDi_r2_v1.2.,2013-01-27 17:43:00,
2013-01-27 12:48:00,34.1,25.0,30.58,ESE,104,3.0,5.0,69,0.00,,,0.00,HR-IXPWINDi_r2_v1.2.,2013-01-27 17:48:00,
2013-01-27 12:53:00,34.2,25.1,30.58,ENE,74,2.0,5.0,69,0.00,,,0.00,HR-IXPWINDi_r2_v1.2.,2013-01-27 17:53:00,
2013-01-27 12:59:00,34.4,25.6,30.58,East,101,0.0,6.0,70,0.00,,,0.00,HR-IXPWINDi_r2_v1.2.,2013-01-27 17:59:00,
2013-01-27 13:04:00,34.6,25.8,30.58,ESE,113,2.0,6.0,70,0.00,,,0.00,HR-IXPWINDi_r2_v1.2.,2013-01-27 18:04:00,
2013-01-27 13:09:00,34.6,25.5,30.58,East,86,2.0,3.0,69,0.00,,,0.01,HR-IXPWINDi_r2_v1.2.,2013-01-27 18:09:00,
2013-01-27 13:14:00,34.7,25.6,30.58,ESE,116,0.0,3.0,69,0.00,,,0.01,HR-IXPWINDi_r2_v1.2.,2013-01-27 18:14:00,
2013-01-27 13:20:00,34.9,25.4,30.57,ESE,117,3.0,3.0,68,0.00,,,0.01,HR-IXPWINDi_r2_v1.2.,2013-01-27 18:20:00,
2013-01-27 13:25:00,34.9,25.4,30.57,ESE,103,1.0,4.0,68,0.00,,,0.01,HR-IXPWINDi_r2_v1.2.,2013-01-27 18:25:00,
2013-01-27 13:30:00,35.1,25.9,30.57,ENE,65,3.0,4.0,69,0.00,,,0.01,HR-IXPWINDi_r2_v1.2.,2013-01-27 18:30:00,
2013-01-27 13:35:00,34.8,25.3,30.56,ESE,109,0.0,5.0,68,0.00,,,0.01,HR-IXPWINDi_r2_v1.2.,2013-01-27 18:35:00,
2013-01-27 13:40:00,35.0,25.5,30.57,ENE,59,1.0,5.0,68,0.00,,,0.01,HR-IXPWINDi_r2_v1.2.,2013-01-27 18:40:00,
2013-01-27 13:46:00,35.2,26.0,30.57,ENE,63,0.0,3.0,69,0.00,,,0.01,HR-IXPWINDi_r2_v1.2.,2013-01-27 18:46:00,
2013-01-27 13:51:00,35.4,25.9,30.57,ENE,73,1.0,2.0,68,0.00,,,0.01,HR-IXPWINDi_r2_v1.2.,2013-01-27 18:51:00,
2013-01-27 13:56:00,35.6,26.1,30.56,East,90,0.0,3.0,68,0.00,,,0.01,HR-IXPWINDi_r2_v1.2.,2013-01-27 18:56:00,
2013-01-27 14:01:00,35.9,25.6,30.56,ENE,67,3.0,3.0,66,0.00,,,0.01,HR-IXPWINDi_r2_v1.2.,2013-01-27 19:01:00,
2013-01-27 14:06:00,35.9,26.0,30.57,East,82,0.0,3.0,67,0.00,,,0.01,HR-IXPWINDi_r2_v1.2.,2013-01-27 19:06:00,
2013-01-27 14:12:00,36.0,26.1,30.56,NNW,346,1.0,3.0,67,0.00,,,0.01,HR-IXPWINDi_r2_v1.2.,2013-01-27 19:12:00,
2013-01-27 14:17:00,36.2,25.9,30.56,ESE,112,2.0,4.0,66,0.00,,,0.01,HR-IXPWINDi_r2_v1.2.,2013-01-27 19:17:00,
2013-01-27 14:22:00,36.4,26.5,30.56,NE,42,2.0,4.0,67,0.00,,,0.01,HR-IXPWINDi_r2_v1.2.,2013-01-27 19:22:00,
2013-01-27 14:27:00,36.5,25.8,30.56,East,95,0.0,3.0,65,0.00,,,0.01,HR-IXPWINDi_r2_v1.2.,2013-01-27 19:27:00,
2013-01-27 14:33:00,36.6,26.3,30.56,NNE,16,0.0,3.0,66,0.00,,,0.01,HR-IXPWINDi_r2_v1.2.,2013-01-27 19:33:00,
2013-01-27 14:38:00,36.7,26.4,30.56,ESE,117,0.0,3.0,66,0.00,,,0.01,HR-IXPWINDi_r2_v1.2.,2013-01-27 19:38:00,
2013-01-27 14:43:00,37.0,26.3,30.55,East,87,0.0,3.0,65,0.00,,,0.01,HR-IXPWINDi_r2_v1.2.,2013-01-27 19:43:00,
2013-01-27 14:48:00,37.2,26.9,30.55,NE,56,2.0,3.0,66,0.00,,,0.02,HR-IXPWINDi_r2_v1.2.,2013-01-27 19:48:00,
2013-01-27 14:53:00,37.1,26.8,30.55,East,90,2.0,3.0,66,0.00,,,0.02,HR-IXPWINDi_r2_v1.2.,2013-01-27 19:53:00,
2013-01-27 14:58:00,37.0,26.7,30.56,ESE,121,0.0,3.0,66,0.00,,,0.02,HR-IXPWINDi_r2_v1.2.,2013-01-27 19:58:00,
2013-01-27 15:03:00,36.9,26.2,30.56,ESE,102,1.0,3.0,65,0.00,,,0.02,HR-IXPWINDi_r2_v1.2.,2013-01-27 20:03:00,
2013-01-27 15:09:00,36.7,26.4,30.56,ESE,102,1.0,3.0,66,0.00,,,0.02,HR-IXPWINDi_r2_v1.2.,2013-01-27 20:09:00,
2013-01-27 15:14:00,36.4,26.1,30.56,ESE,120,3.0,3.0,66,0.00,,,0.02,HR-IXPWINDi_r2_v1.2.,2013-01-27 20:14:00,
2013-01-27 15:19:00,36.4,26.5,30.56,East,101,0.0,3.0,67,0.00,,,0.02,HR-IXPWINDi_r2_v1.2.,2013-01-27 20:19:00,
2013-01-27 15:24:00,36.3,26.0,30.56,ENE,76,0.0,3.0,66,0.00,,,0.02,HR-IXPWINDi_r2_v1.2.,2013-01-27 20:24:00,
2013-01-27 15:29:00,36.2,25.9,30.56,ENE,76,0.0,3.0,66,0.00,,,0.02,HR-IXPWINDi_r2_v1.2.,2013-01-27 20:29:00,
2013-01-27 15:34:00,36.3,26.0,30.56,ENE,75,1.0,2.0,66,0.00,,,0.02,HR-IXPWINDi_r2_v1.2.,2013-01-27 20:34:00,
2013-01-27 15:40:00,36.2,25.9,30.56,ENE,75,0.0,2.0,66,0.00,,,0.02,HR-IXPWINDi_r2_v1.2.,2013-01-27 20:40:00,
2013-01-27 15:45:00,36.3,26.4,30.56,ENE,75,0.0,1.0,67,0.00,,,0.02,HR-IXPWINDi_r2_v1.2.,2013-01-27 20:45:00,
2013-01-27 15:50:00,36.2,25.9,30.56,ENE,75,1.0,1.0,66,0.00,,,0.02,HR-IXPWINDi_r2_v1.2.,2013-01-27 20:50:00,
2013-01-27 15:55:00,36.2,25.9,30.56,ENE,74,0.0,2.0,66,0.00,,,0.02,HR-IXPWINDi_r2_v1.2.,2013-01-27 20:55:00,
2013-01-27 16:01:00,36.1,26.2,30.56,ENE,74,0.0,2.0,67,0.00,,,0.02,HR-IXPWINDi_r2_v1.2.,2013-01-27 21:01:00,
2013-01-27 16:06:00,36.1,26.2,30.56,ENE,74,0.0,1.0,67,0.00,,,0.02,HR-IXPWINDi_r2_v1.2.,2013-01-27 21:06:00,
2013-01-27 16:11:00,36.1,26.2,30.56,East,97,0.0,3.0,67,0.00,,,0.02,HR-IXPWINDi_r2_v1.2.,2013-01-27 21:11:00,
2013-01-27 16:16:00,36.0,26.5,30.56,East,98,0.0,3.0,68,0.00,,,0.03,HR-IXPWINDi_r2_v1.2.,2013-01-27 21:16:00,
2013-01-27 16:22:00,35.9,26.4,30.56,East,96,1.0,2.0,68,0.00,,,0.03,HR-IXPWINDi_r2_v1.2.,2013-01-27 21:22:00,
2013-01-27 16:27:00,35.8,26.6,30.56,East,100,0.0,2.0,69,0.00,,,0.03,HR-IXPWINDi_r2_v1.2.,2013-01-27 21:27:00,
2013-01-27 16:32:00,35.7,26.9,30.56,East,96,0.0,2.0,70,0.00,,,0.03,HR-IXPWINDi_r2_v1.2.,2013-01-27 21:32:00,
2013-01-27 16:37:00,35.6,26.4,30.56,East,96,0.0,2.0,69,0.00,,,0.03,HR-IXPWINDi_r2_v1.2.,2013-01-27 21:37:00,
2013-01-27 16:42:00,35.5,26.7,30.55,East,96,0.0,2.0,70,0.00,,,0.03,HR-IXPWINDi_r2_v1.2.,2013-01-27 21:42:00,
2013-01-27 16:47:00,35.4,26.2,30.56,East,92,0.0,1.0,69,0.00,,,0.03,HR-IXPWINDi_r2_v1.2.,2013-01-27 21:47:00,
2013-01-27 16:52:00,35.3,26.5,30.56,East,100,0.0,2.0,70,0.00,,,0.03,HR-IXPWINDi_r2_v1.2.,2013-01-27 21:52:00,
2013-01-27 16:58:00,35.2,26.4,30.56,East,100,0.0,2.0,70,0.00,,,0.03,HR-IXPWINDi_r2_v1.2.,2013-01-27 21:58:00,
2013-01-27 17:03:00,35.2,26.7,30.56,East,100,0.0,0.0,71,0.00,,,0.03,HR-IXPWINDi_r2_v1.2.,2013-01-27 22:03:00,
2013-01-27 17:08:00,35.1,26.6,30.57,East,100,0.0,0.0,71,0.00,,,0.03,HR-IXPWINDi_r2_v1.2.,2013-01-27 22:08:00,
2013-01-27 17:13:00,35.0,26.5,30.56,East,100,0.0,0.0,71,0.00,,,0.03,HR-IXPWINDi_r2_v1.2.,2013-01-27 22:13:00,
2013-01-27 17:19:00,35.0,26.2,30.56,East,100,0.0,0.0,70,0.00,,,0.03,HR-IXPWINDi_r2_v1.2.,2013-01-27 22:19:00,
2013-01-27 17:24:00,34.9,26.4,30.56,East,100,0.0,0.0,71,0.00,,,0.03,HR-IXPWINDi_r2_v1.2.,2013-01-27 22:24:00,
2013-01-27 17:29:00,34.8,26.3,30.56,East,100,0.0,0.0,71,0.00,,,0.03,HR-IXPWINDi_r2_v1.2.,2013-01-27 22:29:00,
2013-01-27 17:34:00,34.8,26.3,30.56,East,100,0.0,0.0,71,0.00,,,0.03,HR-IXPWINDi_r2_v1.2.,2013-01-27 22:34:00,
2013-01-27 17:39:00,34.7,26.6,30.56,East,100,0.0,0.0,72,0.00,,,0.03,HR-IXPWINDi_r2_v1.2.,2013-01-27 22:39:00,
2013-01-27 17:45:00,34.5,26.7,30.57,East,100,0.0,0.0,73,0.00,,,0.03,HR-IXPWINDi_r2_v1.2.,2013-01-27 22:45:00,
2013-01-27 17:50:00,34.4,26.3,30.57,East,100,0.0,0.0,72,0.00,,,0.03,HR-IXPWINDi_r2_v1.2.,2013-01-27 22:50:00,
2013-01-27 17:55:00,34.3,26.2,30.56,East,100,0.0,0.0,72,0.00,,,0.03,HR-IXPWINDi_r2_v1.2.,2013-01-27 22:55:00,
2013-01-27 18:00:00,34.1,26.0,30.56,East,100,0.0,0.0,72,0.00,,,0.03,HR-IXPWINDi_r2_v1.2.,2013-01-27 23:00:00,
2013-01-27 18:05:00,34.0,25.9,30.57,East,100,0.0,0.0,72,0.00,,,0.03,HR-IXPWINDi_r2_v1.2.,2013-01-27 23:05:00,
2013-01-27 18:10:00,33.9,26.1,30.56,East,100,0.0,0.0,73,0.00,,,0.03,HR-IXPWINDi_r2_v1.2.,2013-01-27 23:10:00,
2013-01-27 18:15:00,33.8,26.4,30.56,East,100,0.0,0.0,74,0.00,,,0.03,HR-IXPWINDi_r2_v1.2.,2013-01-27 23:15:00,
2013-01-27 18:20:00,33.6,26.2,30.56,East,100,0.0,0.0,74,0.00,,,0.03,HR-IXPWINDi_r2_v1.2.,2013-01-27 23:20:00,
2013-01-27 18:26:00,33.5,26.4,30.56,East,100,0.0,0.0,75,0.00,,,0.03,HR-IXPWINDi_r2_v1.2.,2013-01-27 23:26:00,
2013-01-27 18:31:00,33.4,26.3,30.56,East,100,0.0,0.0,75,0.00,,,0.03,HR-IXPWINDi_r2_v1.2.,2013-01-27 23:31:00,
2013-01-27 18:36:00,33.2,25.8,30.56,East,100,0.0,0.0,74,0.00,,,0.03,HR-IXPWINDi_r2_v1.2.,2013-01-27 23:36:00,
2013-01-27 18:41:00,33.1,26.0,30.55,East,100,0.0,0.0,75,0.00,,,0.03,HR-IXPWINDi_r2_v1.2.,2013-01-27 23:41:00,
2013-01-27 18:47:00,33.0,25.9,30.55,East,100,0.0,0.0,75,0.00,,,0.03,HR-IXPWINDi_r2_v1.2.,2013-01-27 23:47:00,
2013-01-27 18:52:00,33.0,26.3,30.55,East,100,0.0,0.0,76,0.00,,,0.03,HR-IXPWINDi_r2_v1.2.,2013-01-27 23:52:00,
2013-01-27 18:57:00,32.9,26.2,30.56,East,100,0.0,0.0,76,0.00,,,0.03,HR-IXPWINDi_r2_v1.2.,2013-01-27 23:57:00,
2013-01-27 19:02:00,32.8,26.7,30.56,East,100,0.0,0.0,78,0.00,,,0.03,HR-IXPWINDi_r2_v1.2.,2013-01-28 00:02:00,
2013-01-27 19:07:00,32.8,27.0,30.56,East,100,0.0,0.0,79,0.00,,,0.03,HR-IXPWINDi_r2_v1.2.,2013-01-28 00:07:00,
2013-01-27 19:13:00,32.7,26.6,30.56,East,100,0.0,0.0,78,0.00,,,0.03,HR-IXPWINDi_r2_v1.2.,2013-01-28 00:13:00,
2013-01-27 19:18:00,32.7,26.6,30.56,East,100,0.0,0.0,78,0.00,,,0.03,HR-IXPWINDi_r2_v1.2.,2013-01-28 00:18:00,
2013-01-27 19:23:00,32.6,26.5,30.56,East,100,0.0,0.0,78,0.00,,,0.03,HR-IXPWINDi_r2_v1.2.,2013-01-28 00:23:00,
2013-01-27 19:28:00,32.6,26.8,30.56,East,100,0.0,0.0,79,0.00,,,0.03,HR-IXPWINDi_r2_v1.2.,2013-01-28 00:28:00,
2013-01-27 19:33:00,32.7,27.5,30.55,East,100,0.0,0.0,81,0.00,,,0.03,HR-IXPWINDi_r2_v1.2.,2013-01-28 00:33:00,
2013-01-27 19:38:00,32.7,27.5,30.55,East,100,0.0,0.0,81,0.00,,,0.03,HR-IXPWINDi_r2_v1.2.,2013-01-28 00:38:00,
2013-01-27 19:43:00,32.8,27.3,30.55,East,100,0.0,0.0,80,0.00,,,0.03,HR-IXPWINDi_r2_v1.2.,2013-01-28 00:43:00,
2013-01-27 19:48:00,32.7,27.5,30.55,East,100,0.0,0.0,81,0.00,,,0.03,HR-IXPWINDi_r2_v1.2.,2013-01-28 00:48:00,
2013-01-27 19:53:00,32.7,27.5,30.55,East,100,0.0,0.0,81,0.00,,,0.03,HR-IXPWINDi_r2_v1.2.,2013-01-28 00:53:00,
2013-01-27 19:59:00,32.6,27.1,30.55,East,100,0.0,0.0,80,0.00,,,0.03,HR-IXPWINDi_r2_v1.2.,2013-01-28 00:59:00,
2013-01-27 20:04:00,32.5,26.7,30.55,East,100,0.0,0.0,79,0.00,,,0.03,HR-IXPWINDi_r2_v1.2.,2013-01-28 01:04:00,
2013-01-27 20:09:00,32.4,26.9,30.55,East,100,0.0,0.0,80,0.00,,,0.03,HR-IXPWINDi_r2_v1.2.,2013-01-28 01:09:00,
2013-01-27 20:14:00,32.3,26.5,30.55,East,100,0.0,0.0,79,0.00,,,0.03,HR-IXPWINDi_r2_v1.2.,2013-01-28 01:14:00,
2013-01-27 20:19:00,32.2,26.4,30.55,East,100,0.0,0.0,79,0.00,,,0.03,HR-IXPWINDi_r2_v1.2.,2013-01-28 01:19:00,
2013-01-27 20:24:00,32.1,26.6,30.55,East,100,0.0,0.0,80,0.00,,,0.03,HR-IXPWINDi_r2_v1.2.,2013-01-28 01:24:00,
2013-01-27 20:29:00,31.9,26.7,30.55,East,100,0.0,0.0,81,0.00,,,0.03,HR-IXPWINDi_r2_v1.2.,2013-01-28 01:29:00,
2013-01-27 20:35:00,31.7,26.5,30.55,East,100,0.0,0.0,81,0.00,,,0.03,HR-IXPWINDi_r2_v1.2.,2013-01-28 01:35:00,
2013-01-27 20:40:00,31.5,26.3,30.55,East,100,0.0,0.0,81,0.00,,,0.03,HR-IXPWINDi_r2_v1.2.,2013-01-28 01:40:00,
2013-01-27 20:45:00,31.2,26.0,30.55,East,100,0.0,0.0,81,0.00,,,0.03,HR-IXPWINDi_r2_v1.2.,2013-01-28 01:45:00,
2013-01-27 20:50:00,31.0,25.8,30.55,East,100,0.0,0.0,81,0.00,,,0.03,HR-IXPWINDi_r2_v1.2.,2013-01-28 01:50:00,
2013-01-27 20:55:00,30.7,25.8,30.55,East,100,0.0,0.0,82,0.00,,,0.03,HR-IXPWINDi_r2_v1.2.,2013-01-28 01:55:00,
2013-01-27 21:00:00,30.4,25.8,30.54,East,100,0.0,0.0,83,0.00,,,0.03,HR-IXPWINDi_r2_v1.2.,2013-01-28 02:00:00,
2013-01-27 21:05:00,30.2,25.7,30.54,East,100,0.0,0.0,83,0.00,,,0.03,HR-IXPWINDi_r2_v1.2.,2013-01-28 02:05:00,
2013-01-27 21:11:00,29.9,25.6,30.53,East,100,0.0,0.0,84,0.00,,,0.03,HR-IXPWINDi_r2_v1.2.,2013-01-28 02:11:00,
2013-01-27 21:16:00,29.7,25.4,30.53,East,100,0.0,0.0,84,0.00,,,0.03,HR-IXPWINDi_r2_v1.2.,2013-01-28 02:16:00,
2013-01-27 21:21:00,29.4,25.4,30.54,East,100,0.0,0.0,85,0.00,,,0.03,HR-IXPWINDi_r2_v1.2.,2013-01-28 02:21:00,
2013-01-27 21:26:00,29.2,25.2,30.54,East,100,0.0,0.0,85,0.00,,,0.03,HR-IXPWINDi_r2_v1.2.,2013-01-28 02:26:00,
2013-01-27 21:31:00,29.1,25.7,30.54,East,100,0.0,0.0,87,0.00,,,0.03,HR-IXPWINDi_r2_v1.2.,2013-01-28 02:31:00,
2013-01-27 21:36:00,29.2,25.8,30.54,East,100,0.0,2.0,87,0.00,,,0.03,HR-IXPWINDi_r2_v1.2.,2013-01-28 02:36:00,
2013-01-27 21:41:00,29.2,25.5,30.54,East,100,0.0,2.0,86,0.00,,,0.03,HR-IXPWINDi_r2_v1.2.,2013-01-28 02:41:00,
2013-01-27 21:47:00,29.2,25.8,30.54,East,100,0.0,0.0,87,0.00,,,0.03,HR-IXPWINDi_r2_v1.2.,2013-01-28 02:47:00,
2013-01-27 21:52:00,29.3,25.6,30.55,East,100,0.0,1.0,86,0.00,,,0.03,HR-IXPWINDi_r2_v1.2.,2013-01-28 02:52:00,
2013-01-27 21:57:00,29.4,26.0,30.54,East,100,0.0,1.0,87,0.00,,,0.03,HR-IXPWINDi_r2_v1.2.,2013-01-28 02:57:00,
2013-01-27 22:02:00,29.5,25.8,30.54,East,100,0.0,0.0,86,0.00,,,0.03,HR-IXPWINDi_r2_v1.2.,2013-01-28 03:02:00,
2013-01-27 22:07:00,29.6,25.9,30.54,East,100,0.0,0.0,86,0.00,,,0.03,HR-IXPWINDi_r2_v1.2.,2013-01-28 03:07:00,
2013-01-27 22:13:00,29.8,26.4,30.53,East,100,0.0,0.0,87,0.00,,,0.03,HR-IXPWINDi_r2_v1.2.,2013-01-28 03:13:00,
2013-01-27 22:18:00,29.9,26.2,30.54,East,100,0.0,0.0,86,0.00,,,0.03,HR-IXPWINDi_r2_v1.2.,2013-01-28 03:18:00,
2013-01-27 22:23:00,30.1,26.7,30.54,East,100,0.0,0.0,87,0.00,,,0.03,HR-IXPWINDi_r2_v1.2.,2013-01-28 03:23:00,
2013-01-27 22:28:00,30.2,26.8,30.54,East,100,0.0,0.0,87,0.00,,,0.03,HR-IXPWINDi_r2_v1.2.,2013-01-28 03:28:00,
2013-01-27 22:33:00,30.3,26.6,30.54,East,100,0.0,0.0,86,0.00,,,0.03,HR-IXPWINDi_r2_v1.2.,2013-01-28 03:33:00,
2013-01-27 22:39:00,30.5,26.2,30.54,East,100,0.0,0.0,84,0.00,,,0.03,HR-IXPWINDi_r2_v1.2.,2013-01-28 03:39:00,
2013-01-27 22:44:00,30.6,26.3,30.53,East,100,0.0,0.0,84,0.00,,,0.03,HR-IXPWINDi_r2_v1.2.,2013-01-28 03:44:00,
2013-01-27 22:49:00,30.7,26.4,30.53,East,100,0.0,0.0,84,0.00,,,0.03,HR-IXPWINDi_r2_v1.2.,2013-01-28 03:49:00,
2013-01-27 22:54:00,30.8,26.8,30.53,East,100,0.0,0.0,85,0.00,,,0.03,HR-IXPWINDi_r2_v1.2.,2013-01-28 03:54:00,
2013-01-27 22:59:00,30.9,26.9,30.53,East,100,0.0,0.0,85,0.00,,,0.03,HR-IXPWINDi_r2_v1.2.,2013-01-28 03:59:00,
2013-01-27 23:04:00,31.0,26.7,30.53,East,100,0.0,0.0,84,0.00,,,0.03,HR-IXPWINDi_r2_v1.2.,2013-01-28 04:04:00,
2013-01-27 23:09:00,31.1,27.1,30.53,East,100,0.0,0.0,85,0.00,,,0.03,HR-IXPWINDi_r2_v1.2.,2013-01-28 04:09:00,
2013-01-27 23:14:00,31.2,27.2,30.53,East,100,0.0,0.0,85,0.00,,,0.03,HR-IXPWINDi_r2_v1.2.,2013-01-28 04:14:00,
2013-01-27 23:20:00,31.2,27.2,30.53,East,100,0.0,0.0,85,0.00,,,0.03,HR-IXPWINDi_r2_v1.2.,2013-01-28 04:20:00,
2013-01-27 23:25:00,31.4,27.1,30.53,East,100,0.0,0.0,84,0.00,,,0.03,HR-IXPWINDi_r2_v1.2.,2013-01-28 04:25:00,
2013-01-27 23:30:00,31.5,26.9,30.53,East,100,0.0,0.0,83,0.00,,,0.03,HR-IXPWINDi_r2_v1.2.,2013-01-28 04:30:00,
2013-01-27 23:35:00,31.5,26.6,30.53,East,100,0.0,0.0,82,0.00,,,0.03,HR-IXPWINDi_r2_v1.2.,2013-01-28 04:35:00,
2013-01-27 23:40:00,31.6,27.0,30.52,East,100,0.0,0.0,83,0.00,,,0.03,HR-IXPWINDi_r2_v1.2.,2013-01-28 04:40:00,
2013-01-27 23:45:00,31.6,26.7,30.52,East,100,0.0,0.0,82,0.00,,,0.03,HR-IXPWINDi_r2_v1.2.,2013-01-28 04:45:00,
2013-01-27 23:51:00,31.6,27.0,30.52,East,100,0.0,0.0,83,0.00,,,0.03,HR-IXPWINDi_r2_v1.2.,2013-01-28 04:51:00,
2013-01-27 23:56:00,31.7,27.4,30.52,East,100,0.0,0.0,84,0.00,,,0.03,HR-IXPWINDi_r2_v1.2.,2013-01-28 04:56:00,